This is the latest recevied weather packets stored in our database for station/object KE4EST. If no packets are shown the sender has not sent any weather packets the latest 10 day(s).
| Time | Temp. | Humidity | Pressure | Rain* | Wind** | Luminosity | Snow |
|---|---|---|---|---|---|---|---|
| 1777418907 | 18.33° C | 89% | 1018.1 hPa | 0 mm | - | 7 W/m² | - |
| 1777418602 | 18.33° C | 88% | 1018.1 hPa | 0 mm | - | 18 W/m² | - |
| 1777418299 | 18.33° C | 88% | 1018.1 hPa | 0 mm | - | 31 W/m² | - |
| 1777417994 | 18.33° C | 88% | 1018.7 hPa | 0 mm | - | 30 W/m² | - |
| 1777417691 | 18.33° C | 88% | 1018.3 hPa | 0 mm | - | 32 W/m² | - |
| 1777417386 | 18.33° C | 88% | 1017.8 hPa | 0 mm | - | 19 W/m² | - |
| 1777417083 | 18.89° C | 88% | 1017.8 hPa | 0 mm | - | 13 W/m² | - |
| 1777416778 | 18.89° C | 86% | 1017.8 hPa | 0 mm | - | 23 W/m² | - |
| 1777416473 | 18.89° C | 86% | 1017.7 hPa | 0 mm | - | 42 W/m² | - |
| 1777416170 | 18.89° C | 85% | 1018.3 hPa | 0 mm | - | 47 W/m² | - |
| 1777415864 | 19.44° C | 85% | 1018.1 hPa | 0 mm | - | 39 W/m² | - |
| 1777415560 | 19.44° C | 85% | 1018.3 hPa | 0 mm | - | 32 W/m² | - |
| 1777415256 | 19.44° C | 84% | 1018.1 hPa | 0 mm | - | 57 W/m² | - |
| 1777414951 | 19.44° C | 85% | 1018.1 hPa | 0 mm | - | 47 W/m² | - |
| 1777414651 | 19.44° C | 83% | 1018.2 hPa | 0 mm | - | 50 W/m² | - |
| 1777414346 | 20° C | 82% | 1018.5 hPa | 0 mm | - | 34 W/m² | - |
| 1777414041 | 20° C | 82% | 1018.4 hPa | 0 mm | - | 38 W/m² | - |
| 1777413736 | 20.56° C | 82% | 1018 hPa | 0 mm | - | 68 W/m² | - |
| 1777413431 | 20.56° C | 82% | 1018.1 hPa | 0 mm | - | 83 W/m² | - |
| 1777413128 | 20.56° C | 81% | 1018 hPa | 0 mm | - | 152 W/m² | - |
| 1777412823 | 21.11° C | 80% | 1018 hPa | 0 mm | - | 85 W/m² | - |
| 1777412523 | 20.56° C | 80% | 1017.8 hPa | 0 mm | - | 95 W/m² | - |
| 1777412220 | 20.56° C | 80% | 1017.4 hPa | 0 mm | - | 107 W/m² | - |
| 1777411916 | 20.56° C | 81% | 1017.7 hPa | 0 mm | - | 123 W/m² | - |
| 1777411615 | 20.56° C | 82% | 1017.6 hPa | 0 mm | - | 68 W/m² | - |
* Rain latest hour (hover to see other rain measurements)
** Current wind speed in m/s (hover to see current wind gust speed)